カタログに戻る

STARLINK-34669

運用中通信VLEO
NORAD 64811·PAYLOAD·🇺🇸 United States

打ち上げ Jul 16, 2025 から Vandenberg Space Force Base

Loading…

次のパス (今後24時間)

TLE

最新Source: CelesTrak SupGP

元期: Sep 15, 2026, 03:22 UTC

1 64811C 25150X   26258.14076389  .00050014  00000+0  41920-2 0  2589
2 64811  70.0030  16.6366 0003129 267.8263 257.4631 14.98299730    10

AllMySatでSTARLINK-34669をリアルタイム追跡

Download on the App Store